Вернуться в каталог

SL-8 DEB *

АктивенLEO
NORAD 15528·DEBRIS·🇷🇺 Russia

Запущен Nov 11, 1982 с Plesetsk Cosmodrome

Loading…

Ближайшие Пролёты (ближайшие 24 часа)

TLE

СвежийSource: Space-Track

Эпоха: Sep 14, 2026, 11:21 UTC

1 15528U 82109D   26257.47345325  .00001379  00000-0  26044-3 0  9995
2 15528  74.0154 261.9698 0011103 320.9265 191.2264 14.65430697230182

Отслеживайте SL-8 DEB * в реальном времени с AllMySat

Download on the App Store